Find Kosmos-2523

NORAD ID: 42986 Int'l Des: 2017-037 Owner: VVKOV Country: RU operational
LEOCIRCULARRETROGRADESSO

当前视图

正在加载3D地球...

About Kosmos-2523

Kosmos-2523 (NORAD 42986) is a satellite launched Jun 23, 2017 by VVKOV of RU. It operates in LEO, CIRCULAR, RETROGRADE, SSO orbit with a mass of 47.00 kg.

即将过境

Passes for default location (London). Set your location on the main map for personalized predictions.

高度历史

Loading altitude history...

两行轨道根数

1 42986U 17037E 26194.83162411 .00000581 00000-0 55159-4 0 9998
2 42986 97.4982 206.7900 0067658 139.3297 221.3006 14.95496541472948
Epoch: Jul 13, 2026 • Age: 9 hours

当前状态

高度 631.5 km
远地点 / 近地点 N/A
速度 7.53 km/s
星下点 -75.95°S, 13.46°W
发射日期 Jun 23, 2017
运行时间 9 years
类型 other

技术详情

分类 Payload
质量 47.00 kg
干质量 47.00 kg
总质量 47.00 kg
长度 0.40 m
直径 0.20 m
跨度 0.40 m
形状 Box
制造商 TSKHM
平台类型 Naprazheniye
阶段状态 In Orbit
所有者/国家 VVKOV/RU

Most Searched